WX4MMM Weather Reports


time (UTC)temp
C
wind
direction
speed
KPH
gust
KPH
rain 1hr
cm
rain 24hr
cm
rain mn
cm
humidity
%
barometer
mb
20260506034003 19 233 3.2 11.3 0.00 0.00 0.00 67 1015.0
20260506033503 19 236 4.8 9.7 0.00 0.00 0.00 66 1015.0
20260506033004 19 69 1.6 4.8 0.00 0.00 0.00 66 1015.0
20260506032503 19 180 1.6 4.8 0.00 0.00 0.00 65 1015.0
20260506031503 20 223 1.6 4.8 0.00 0.00 0.00 64 1015.1
20260506030503 20 227 1.6 4.8 0.00 0.00 0.00 63 1015.1
20260506030003 20 254 4.8 9.7 0.00 0.00 0.00 63 1015.0
20260506025503 20 197 4.8 11.3 0.00 0.00 0.00 62 1015.1
20260506025004 20 149 3.2 4.8 0.00 0.00 0.00 62 1015.1
20260506024503 20 183 3.2 9.7 0.00 0.00 0.00 61 1015.1
20260506024003 20 252 1.6 3.2 0.00 0.00 0.00 61 1015.0
20260506023503 20 302 1.6 4.8 0.00 0.00 0.00 60 1015.0
20260506023003 20 204 3.2 4.8 0.00 0.00 0.00 60 1014.9
20260506022504 20 260 3.2 8.0 0.00 0.00 0.00 60 1015.0
20260506022018 21 281 1.6 4.8 0.00 0.00 0.00 59 1015.0
20260506021503 21 144 3.2 4.8 0.00 0.00 0.00 58 1014.9
20260506021004 21 182 1.6 4.8 0.00 0.00 0.00 58 1014.8
20260506020503 21 184 3.2 8.0 0.00 0.00 0.00 58 1014.8
20260506020004 21 171 1.6 8.0 0.00 0.00 0.00 57 1014.7
20260506015505 21 197 3.2 8.0 0.00 0.00 0.00 57 1014.7
20260506015003 21 243 3.2 8.0 0.00 0.00 0.00 56 1014.6
20260506014503 21 221 3.2 9.7 0.00 0.00 0.00 56 1014.5
20260506014003 21 347 3.2 8.0 0.00 0.00 0.00 55 1014.4
20260506013503 21 177 3.2 9.7 0.00 0.00 0.00 55 1014.4
20260506013003 21 273 3.2 11.3 0.00 0.00 0.00 55 1014.3
20260506012504 22 245 1.6 4.8 0.00 0.00 0.00 55 1014.2
20260506012003 22 240 1.6 8.0 0.00 0.00 0.00 54 1014.2
20260506011003 22 310 3.2 11.3 0.00 0.00 0.00 54 1014.1
20260506010503 22 330 3.2 4.8 0.00 0.00 0.00 54 1014.0
20260506010004 22 279 1.6 4.8 0.00 0.00 0.00 54 1013.9
20260506005003 22 267 1.6 4.8 0.00 0.00 0.00 53 1013.9
20260506004504 22 186 3.2 9.7 0.00 0.00 0.00 52 1013.7
20260506004003 22 209 1.6 8.0 0.00 0.00 0.00 52 1013.7
20260506003503 22 345 1.6 8.0 0.00 0.00 0.00 52 1013.6
20260506003003 22 289 0.0 4.8 0.00 0.00 0.00 51 1013.6
20260506002503 22 157 1.6 4.8 0.00 0.00 0.00 51 1013.5
20260506002003 22 118 1.6 4.8 0.00 0.00 0.00 50 1013.5
20260506001503 23 316 1.6 8.0 0.00 0.00 0.00 50 1013.4
20260506001003 23 231 1.6 3.2 0.00 0.00 0.00 49 1013.4
20260506000003 23 230 1.6 3.2 0.00 0.00 0.00 48 1013.3
20260505235503 23 210 1.6 3.2 0.00 0.00 0.00 47 1013.3
20260505235004 23 167 1.6 4.8 0.00 0.00 0.00 47 1013.3
20260505234504 23 211 3.2 4.8 0.00 0.00 0.00 47 1013.2
20260505234003 23 141 3.2 4.8 0.00 0.00 0.00 47 1013.3
20260505233503 24 201 1.6 4.8 0.00 0.00 0.00 47 1013.2
20260505233004 24 242 1.6 8.0 0.00 0.00 0.00 47 1013.2
20260505232503 24 249 1.6 4.8 0.00 0.00 0.00 46 1013.1
20260505232003 24 173 3.2 8.0 0.00 0.00 0.00 46 1013.1
20260505231504 24 204 1.6 8.0 0.00 0.00 0.00 46 1013.1
20260505230503 24 258 1.6 8.0 0.00 0.00 0.00 46 1013.1
20260505230003 24 216 1.6 4.8 0.00 0.00 0.00 45 1013.1
20260505225503 24 315 1.6 8.0 0.00 0.00 0.00 45 1013.1
20260505224503 25 238 3.2 8.0 0.00 0.00 0.00 44 1013.3
20260505224004 25 198 1.6 4.8 0.00 0.00 0.00 44 1013.3
20260505223004 25 147 3.2 8.0 0.00 0.00 0.00 43 1013.4
20260505222503 25 177 4.8 9.7 0.00 0.00 0.00 42 1013.4
20260505222003 25 258 3.2 8.0 0.00 0.00 0.00 42 1013.4
20260505221503 25 205 3.2 9.7 0.00 0.00 0.00 42 1013.4
20260505221004 25 263 3.2 8.0 0.00 0.00 0.00 41 1013.5
20260505220003 26 278 1.6 8.0 0.00 0.00 0.00 42 1013.5
20260505215503 26 158 3.2 9.7 0.00 0.00 0.00 40 1013.5
20260505215004 26 125 3.2 8.0 0.00 0.00 0.00 41 1013.6
20260505214006 26 251 3.2 9.7 0.00 0.00 0.00 40 1013.4
20260505213503 26 186 3.2 8.0 0.00 0.00 0.00 40 1013.5
20260505212503 26 225 3.2 8.0 0.00 0.00 0.00 40 1013.5
20260505212003 26 208 3.2 4.8 0.00 0.00 0.00 40 1013.5
20260505211504 26 169 4.8 8.0 0.00 0.00 0.00 39 1013.5
20260505211003 26 189 3.2 12.9 0.00 0.00 0.00 40 1013.6
20260505210503 26 223 3.2 12.9 0.00 0.00 0.00 39 1013.5
20260505210003 25 211 1.6 9.7 0.00 0.00 0.00 40 1013.5
20260505205003 26 257 1.6 4.8 0.00 0.00 0.00 39 1013.7
20260505204504 26 251 3.2 9.7 0.00 0.00 0.00 39 1013.7
20260505204003 26 219 1.6 4.8 0.00 0.00 0.00 40 1013.7
20260505203503 26 202 1.6 12.9 0.00 0.00 0.00 39 1013.8
20260505203003 26 178 3.2 8.0 0.00 0.00 0.00 38 1013.7
20260505202504 26 219 4.8 9.7 0.00 0.00 0.00 38 1013.7
20260505202004 26 182 4.8 9.7 0.00 0.00 0.00 38 1013.7
20260505201503 27 142 3.2 9.7 0.00 0.00 0.00 38 1013.6
20260505201004 26 180 1.6 8.0 0.00 0.00 0.00 39 1013.6
20260505200503 26 259 3.2 8.0 0.00 0.00 0.00 39 1013.7
20260505200004 26 171 3.2 4.8 0.00 0.00 0.00 40 1013.7
20260505195503 26 184 3.2 9.7 0.00 0.00 0.00 39 1014.0
20260505195003 26 130 3.2 8.0 0.00 0.00 0.00 41 1013.9
20260505194504 26 165 3.2 11.3 0.00 0.00 0.00 40 1014.1
20260505194003 26 211 3.2 9.7 0.00 0.00 0.00 41 1014.2
20260505193504 26 225 3.2 9.7 0.00 0.00 0.00 39 1014.2
20260505193003 26 260 1.6 8.0 0.00 0.00 0.00 40 1014.4
20260505192004 26 203 1.6 4.8 0.00 0.00 0.00 43 1014.5
20260505191504 26 201 3.2 8.0 0.00 0.00 0.00 41 1014.5
20260505191004 26 158 4.8 14.5 0.00 0.00 0.00 39 1014.5
20260505190503 26 263 3.2 8.0 0.00 0.00 0.00 41 1014.6
20260505185503 26 288 3.2 8.0 0.00 0.00 0.00 42 1014.9
20260505185003 26 195 1.6 4.8 0.00 0.00 0.00 41 1014.9
20260505183503 26 264 1.6 4.8 0.00 0.00 0.00 40 1015.0
20260505183003 26 273 3.2 4.8 0.00 0.00 0.00 40 1015.3
20260505182503 26 245 3.2 8.0 0.00 0.00 0.00 40 1015.3
20260505182003 26 279 1.6 9.7 0.00 0.00 0.00 38 1015.4
20260505181503 26 246 3.2 12.9 0.00 0.00 0.00 39 1015.3
20260505181003 26 192 3.2 4.8 0.00 0.00 0.00 38 1015.2
20260505175504 26 161 1.6 9.7 0.00 0.00 0.00 39 1015.5
20260505175004 26 202 3.2 9.7 0.00 0.00 0.00 38 1015.4
20260505174503 26 107 1.6 8.0 0.00 0.00 0.00 39 1015.4
20260505174003 26 158 1.6 4.8 0.00 0.00 0.00 40 1015.4
20260505173504 26 283 1.6 4.8 0.00 0.00 0.00 42 1015.4
20260505173003 25 44 3.2 9.7 0.00 0.00 0.00 40 1015.5
20260505172503 25 183 3.2 9.7 0.00 0.00 0.00 40 1015.5
20260505172003 26 164 3.2 9.7 0.00 0.00 0.00 41 1015.6
20260505171503 26 354 4.8 9.7 0.00 0.00 0.00 41 1015.5
20260505171003 26 208 3.2 8.0 0.00 0.00 0.00 41 1015.6
20260505170503 26 51 3.2 8.0 0.00 0.00 0.00 41 1015.6
20260505170003 26 197 1.6 4.8 0.00 0.00 0.00 40 1015.7
20260505165503 25 285 3.2 4.8 0.00 0.00 0.00 40 1015.8
20260505165004 25 121 3.2 9.7 0.00 0.00 0.00 41 1015.8
20260505163503 25 228 1.6 9.7 0.00 0.00 0.00 45 1015.9
20260505162504 25 262 3.2 8.0 0.00 0.00 0.00 41 1016.0
20260505160504 24 151 3.2 9.7 0.00 0.00 0.00 44 1016.1
20260505153003 23 170 1.6 8.0 0.00 0.00 0.00 49 1016.5
20260505152503 23 276 1.6 4.8 0.00 0.00 0.00 50 1016.5
20260505151003 22 262 3.2 8.0 0.00 0.00 0.00 50 1016.6
20260505150503 22 176 1.6 8.0 0.00 0.00 0.00 51 1016.5
20260505140503 21 160 1.6 8.0 0.00 0.00 0.00 56 1016.3
20260505125003 17 238 1.6 4.8 0.00 0.00 0.00 67 1016.6
20260505124504 17 167 1.6 4.8 0.00 0.00 0.00 68 1016.6
20260505124004 16 308 0.0 1.6 0.00 0.00 0.00 68 1016.6
20260505123503 16 36 1.6 3.2 0.00 0.00 0.00 69 1016.6
20260505122503 16 160 3.2 9.7 0.00 0.00 0.00 70 1016.7
20260505122004 16 170 1.6 9.7 0.00 0.00 0.00 70 1016.7
20260505121504 16 183 0.0 3.2 0.00 0.00 0.00 70 1016.7
20260505121004 15 164 1.6 4.8 0.00 0.00 0.00 71 1016.6
20260505120505 15 299 1.6 3.2 0.00 0.00 0.00 71 1016.6
20260505120004 15 157 1.6 4.8 0.00 0.00 0.00 72 1016.5
20260505115503 15 173 1.6 4.8 0.00 0.00 0.00 71 1016.5
20260505115004 15 148 3.2 8.0 0.00 0.00 0.00 72 1016.5
20260505114503 15 211 1.6 4.8 0.00 0.00 0.00 72 1016.5
20260505114004 15 358 1.6 4.8 0.00 0.00 0.00 73 1016.5
20260505113503 15 187 1.6 4.8 0.00 0.00 0.00 73 1016.5
20260505113003 15 163 0.0 3.2 0.00 0.00 0.00 73 1016.4
20260505112503 15 169 1.6 4.8 0.00 0.00 0.00 73 1016.4
20260505112004 14 159 1.6 3.2 0.00 0.00 0.00 74 1016.4
20260505111503 14 206 1.6 4.8 0.00 0.00 0.00 74 1016.3
20260505111004 14 131 0.0 3.2 0.00 0.00 0.00 74 1016.2
20260505110504 13 182 1.6 3.2 0.00 0.00 0.00 75 1016.1
20260505102004 11 160 0.0 0.0 0.00 0.00 0.00 84 1015.8
20260505101504 11 160 1.6 3.2 0.00 0.00 0.00 85 1015.7
20260505101004 11 291 1.6 1.6 0.00 0.00 0.00 85 1015.7
20260505100504 11 165 1.6 1.6 0.00 0.00 0.00 85 1015.7
20260505100004 11 173 0.0 1.6 0.00 0.00 0.00 85 1015.7
20260505095504 11 172 0.0 1.6 0.00 0.00 0.00 85 1015.6
20260505095004 11 103 0.0 0.0 0.00 0.00 0.00 85 1015.6
20260505094503 11 218 0.0 1.6 0.00 0.00 0.00 84 1015.6
20260505094003 11 293 0.0 1.6 0.00 0.00 0.00 84 1015.5
20260505093003 11 160 0.0 1.6 0.00 0.00 0.00 83 1015.5
20260505092503 11 282 0.0 1.6 0.00 0.00 0.00 82 1015.5
20260505092004 11 296 0.0 0.0 0.00 0.00 0.00 82 1015.5
20260505091504 12 296 0.0 1.6 0.00 0.00 0.00 81 1015.4
20260505090504 12 196 0.0 0.0 0.00 0.00 0.00 80 1015.4
20260505085503 12 196 0.0 0.0 0.00 0.00 0.00 79 1015.5
20260505085003 12 196 0.0 0.0 0.00 0.00 0.00 78 1015.4
20260505084503 13 196 0.0 1.6 0.00 0.00 0.00 77 1015.3
20260505084003 13 175 0.0 0.0 0.00 0.00 0.00 76 1015.3
20260505083503 13 193 0.0 0.0 0.00 0.00 0.00 75 1015.3
20260505083004 13 193 0.0 0.0 0.00 0.00 0.00 74 1015.3
20260505082503 13 193 0.0 0.0 0.00 0.00 0.00 74 1015.3
20260505082004 13 193 0.0 0.0 0.00 0.00 0.00 73 1015.3
20260505081004 14 193 0.0 0.0 0.00 0.00 0.00 72 1015.2
20260505080004 14 190 0.0 3.2 0.00 0.00 0.00 70 1015.1
20260505074504 15 207 0.0 0.0 0.00 0.00 0.00 69 1015.0
20260505073503 15 11 0.0 3.2 0.00 0.00 0.00 69 1014.9
20260505073003 15 294 1.6 3.2 0.00 0.00 0.00 69 1014.9
20260505072503 15 5 0.0 1.6 0.00 0.00 0.00 69 1014.9
20260505072005 15 281 1.6 3.2 0.00 0.00 0.00 69 1014.9
20260505070503 15 194 0.0 0.0 0.00 0.00 0.00 68 1014.9
20260505065504 15 231 0.0 3.2 0.00 0.00 0.00 67 1014.9
20260505065004 15 221 1.6 3.2 0.00 0.00 0.00 67 1014.9
20260505064504 15 180 0.0 1.6 0.00 0.00 0.00 67 1014.9
20260505064004 15 224 1.6 3.2 0.00 0.00 0.00 67 1014.9
20260505063503 15 230 1.6 3.2 0.00 0.00 0.00 67 1014.9
20260505062504 16 154 0.0 0.0 0.00 0.00 0.00 67 1014.8
20260505061503 16 228 0.0 3.2 0.00 0.00 0.00 66 1014.8
20260505061003 16 169 1.6 3.2 0.00 0.00 0.00 66 1014.8
20260505060503 16 237 1.6 3.2 0.00 0.00 0.00 66 1014.8
20260505060003 16 184 1.6 1.6 0.00 0.00 0.00 66 1014.9
20260505055004 16 236 0.0 3.2 0.00 0.00 0.00 65 1014.8
20260505054504 16 231 0.0 3.2 0.00 0.00 0.00 65 1014.8
20260505054004 16 162 1.6 4.8 0.00 0.00 0.00 65 1014.8
20260505053504 16 187 1.6 3.2 0.00 0.00 0.00 65 1014.9
20260505053004 16 259 1.6 3.2 0.00 0.00 0.00 65 1014.9
20260505052504 16 201 3.2 3.2 0.00 0.00 0.00 64 1015.0
20260505052004 16 182 1.6 3.2 0.00 0.00 0.00 65 1015.0
20260505051503 16 189 0.0 3.2 0.00 0.00 0.00 64 1015.0
20260505051003 17 218 0.0 3.2 0.00 0.00 0.00 64 1015.0
20260505050503 17 175 1.6 4.8 0.00 0.00 0.00 64 1015.0
20260505041504 17 177 1.6 4.8 0.00 0.00 0.00 62 1014.9
20260505041003 17 96 0.0 3.2 0.00 0.00 0.00 62 1014.9
20260505040505 18 171 1.6 3.2 0.00 0.00 0.00 61 1014.9
20260505040004 18 63 3.2 4.8 0.00 0.00 0.00 60 1014.9
20260505035504 18 160 3.2 4.8 0.00 0.00 0.00 60 1014.9
20260505035004 18 230 1.6 3.2 0.00 0.00 0.00 60 1014.9
20260505034503 18 111 1.6 3.2 0.00 0.00 0.00 60 1014.8